Flag for Italy Weather past 2 weeks in Palermo, Italy

61 °F

Scattered clouds.

Feels Like: 61 °F
Forecast: 55 / 58 °F
Wind: 23 mph from Northwest

Location: Palermo / Punta Raisi

Current Time: Nov 25, 2015 at 2:06:13 PM

Latest Report: Nov 25, 2015 at 1:20 PM

Visibility: N/A

Pressure: 29.83 "Hg

Humidity: 72%

Dew point: 52 °F

Location of PalermoLocation

Historic Weather in Palermo — Graph


Palermo temperature yesterday

Maximum temperature yesterday: 66 °F (at 12:50 PM)
Minimum temperature yesterday: 54 °F (at 7:20 AM)
Average temperature yesterday: 59 °F

Past Weeks' High & Low Weather Summary

High70 °F (Nov 21, 11:50 AM)100% (Nov 13, 5:50 AM)30.39 "Hg (Nov 13, 5:50 AM)
Low54 °F (Nov 17, 7:50 AM)43% (Nov 23, 3:20 PM)29.53 "Hg (Nov 21, 5:50 PM)
Average63 °F75%30.11 "Hg
* Reported Nov 10 12:20 PM — Nov 25 12:50 PM, Palermo, Weather by CustomWeather, © 2015

Note: Actual official high and low records may vary slightly from our data, if they occured in-between our weather recording intervals... More about our weather records


Palermo weather history for previous 24 hours

Time TempWeatherWind HumidityBarometerVisibility
12:50 PM
Wed, Nov 25
61 °FScattered clouds.26 mph63%29.83 "HgN/A
12:20 PM61 °FPartly sunny.26 mph68%29.86 "HgN/A
11:50 AM61 °FScattered clouds.26 mph63%29.83 "HgN/A
11:20 AM61 °FBroken clouds.28 mph68%29.83 "HgN/A
10:50 AM63 °FPartly sunny.28 mph68%29.83 "HgN/A
10:20 AM61 °FBroken clouds.31 mph72%29.80 "Hg6 mi
9:50 AM63 °FPartly sunny.33 mph68%29.80 "HgN/A
9:20 AM61 °FRain. Partly sunny.30 mph77%29.77 "Hg3 mi
8:50 AM63 °FBroken clouds.35 mph73%29.77 "HgN/A
7:50 AM61 °FRain. Partly sunny.31 mph88%29.74 "Hg5 mi
7:20 AM61 °FRain. Partly sunny.31 mph83%29.71 "Hg3 mi
6:50 AM61 °FHeavy rain. Passing clouds.32 mph88%29.71 "Hg3 mi
6:20 AM61 °FRain showers. Partly cloudy.25 mph88%29.71 "Hg5 mi
5:50 AM61 °FPassing clouds.25 mph88%29.71 "HgN/A
4:50 AM61 °FPassing clouds.16 mph77%29.71 "HgN/A
4:20 AM59 °FPassing clouds.12 mph82%29.74 "HgN/A
3:50 AM59 °FPassing clouds.13 mph77%29.74 "HgN/A
3:20 AM59 °FPassing clouds.12 mph77%29.77 "HgN/A
2:50 AM59 °FPassing clouds.12 mph77%29.77 "HgN/A
2:20 AM59 °FPassing clouds.12 mph77%29.77 "HgN/A
1:50 AM57 °FPassing clouds.14 mph77%29.77 "HgN/A
12:50 AM57 °FPassing clouds.9 mph82%29.80 "HgN/A
12:20 AM59 °FPassing clouds.9 mph82%29.83 "HgN/A
11:50 PM
Tue, Nov 24
57 °FPassing clouds.7 mph82%29.83 "HgN/A
11:20 PM61 °FPassing clouds.5 mph77%29.83 "HgN/A
10:50 PM55 °FPassing clouds.5 mph82%29.83 "HgN/A
10:20 PM54 °FClear.7 mph88%29.86 "Hg10 mi
9:50 PM54 °FPassing clouds.6 mph88%29.86 "HgN/A
9:20 PM55 °FPassing clouds.2 mph88%29.89 "HgN/A
8:50 PM54 °FPassing clouds.2 mph88%29.89 "HgN/A
8:20 PM57 °FPassing clouds.2 mph77%29.89 "HgN/A
7:50 PM55 °FPassing clouds.5 mph88%29.89 "HgN/A
7:20 PM59 °FPassing clouds.2 mph82%29.92 "HgN/A
6:50 PM59 °FPassing clouds.12 mph77%29.92 "HgN/A
6:20 PM57 °FPassing clouds.10 mph82%29.92 "HgN/A
5:50 PM59 °FPartly cloudy.15 mph82%29.92 "HgN/A
5:20 PM59 °FThundershowers. Partly cloudy.13 mph88%29.89 "HgN/A
4:50 PM59 °FPartly cloudy.16 mph82%29.92 "HgN/A
4:20 PM57 °FRain. Broken clouds.9 mph88%29.95 "Hg4 mi
3:50 PM61 °FThunderstorms. Partly sunny.2 mph83%29.98 "Hg2 mi
3:20 PM61 °FThunderstorms. Partly sunny.13 mph77%29.95 "Hg2 mi
2:50 PM63 °FScattered showers. Partly sunny.16 mph64%29.92 "HgN/A
2:20 PM63 °FPartly sunny.18 mph64%29.92 "HgN/A
Weather by CustomWeather, © 2015

See weather overviewHow to use our weather pages